Regional Weather Roundup
Issued by NWS Albany, NY

Home | Current Version | Previous Version | Text Only | Print | Product List | Glossary On
Versions: 1 2 3 4 5 6 7 8 9 10 11 12 13 14 15 16 17 18 19 20 21 22 23 24 25 26 27 28
000
ASUS41 KALY 062110
RWRALY

NEW YORK STATE HOURLY WEATHER ROUNDUP
NATIONAL WEATHER SERVICE ALBANY NY
400 PM EST TUE DEC 06 2016

NOTE: "FAIR" INDICATES FEW OR NO CLOUDS BELOW 12,000 FEET WITH NO
SIGNIFICANT WEATHER AND/OR NO OBSTRUCTIONS TO VISIBILITY.

NYZ032-033-038>043-046>054-057>066-NYZ062>081-082-084-062200-
EAST


CITY           SKY/WX    TMP DP  RH WIND       PRES   REMARKS
ALBANY         CLOUDY    38  31  76 NE9       29.98F WCI  31
GLENS FALLS    CLOUDY    36  28  73 NE7       29.99F WCI  30
POUGHKEEPSIE   CLOUDY    42  29  59 E5        29.96F
NEWBURGH       CLOUDY    41  32  70 VRB5      29.96F
MONTGOMERY     CLOUDY    42  31  64 E3        29.94F
WHITE PLAINS   CLOUDY    42  30  62 E7        29.95F
ISLIP          CLOUDY    44  30  57 E9        29.97F
NEW YORK CITY  CLOUDY    46  31  55 E14G24    29.96F
CENTRAL PARK   CLOUDY    45  29  53 VRB5      29.97F
$$

NYZ005>009-017-018-044>046-055-056-062200-
CENTRAL


CITY           SKY/WX    TMP DP  RH WIND       PRES   REMARKS
FULTON         CLOUDY    40  31  70 VRB6      29.90F
SYRACUSE       CLOUDY    40  30  67 E10       29.89F WCI  33
ROME           PTCLDY    38  31  76 E8        29.94F WCI  32
ELMIRA         CLOUDY    39  28  64 CALM      29.87S
BINGHAMTON     PTCLDY    35  27  72 SE12      29.86F WCI  27
MONTICELLO     PTCLDY    36  28  75 E6        29.93R WCI  31
$$

NYZ026>034-041>043-087-062200-
NORTH


CITY           SKY/WX    TMP DP  RH WIND       PRES   REMARKS
WATERTOWN      CLOUDY    38  31  76 E3        29.93F
FORT DRUM      NOT AVBL
OGDENSBURG     FAIR      35  30  83 NE7       29.97F WCI  29
MASSENA        PTCLDY    34  27  75 NE12      30.01F WCI  25
SARANAC LAKE   CLOUDY    29  25  85 NE10      29.92F WCI  20
PLATTSBURGH    CLOUDY    33  26  75 CALM      30.05F
$$

NYZ001>004-010>016-019>021-085-062200-
WEST


CITY           SKY/WX    TMP DP  RH WIND       PRES   REMARKS
NIAGARA FALLS  LGTSLEET  39  30  70 E8        29.81R WCI  33
BUFFALO        LGT RAIN  41  28  60 E10       29.81R
DUNKIRK        LGT RAIN  38  32  79 E8        29.78R WCI  32
JAMESTOWN      CLOUDY    34  28  80 S10G17    29.73F WCI  26
WELLSVILLE     FRZ RAIN  34  29  82 S18G30    29.79F WCI  23
ROCHESTER      CLOUDY    40  31  70 SE13      29.85F WCI  32
PENN YAN       CLOUDY    39  29  67 SE7       29.86F WCI  34
$$

             KEY
       WCI = WIND CHILL INDEX
       VSB = VISIBILITY
       HX  = HEAT INDEX
$$




USA.gov is the U.S. government's official web portal to all federal, state and local government web resources and services.